DW4338 Bergen NO current weather conditions

sailwx.info

Wind from 142 at 14 knots gusting 33

Air temperature 2.2° C
Dewpoint 1.4° C

Last reported at 2017-Dec-13 13:03 UTC.
Time now 2017-Dec-13 13:17 UTC

Location: N 60°31' E 004°54'.
View on Google Maps.

See reports from other nearby stations

  
Tides and Currents Weather Stations Pressure Air Temp Water Temp Dewpoint Dewpoint Depression Visibility Wind Speed Wind Dir Waves Ship Positions
date/time (UTC)wind fromknots sea level pressurealtimeterstation pressurevisibilityair tempwater tempwave heightnotes
2017-Dec-13 13:03 142 14 gusting 33 2.2
2017-Dec-13 12:48 182 15 gusting 39 2.2
2017-Dec-13 12:33 146 17 gusting 39 2.2
2017-Dec-13 12:18 165 13 gusting 35 2.2
2017-Dec-13 12:03 186 20 gusting 46 2.2
2017-Dec-13 11:48 153 18 gusting 40 2.2
2017-Dec-13 11:33 156 26 gusting 55 2.2
2017-Dec-13 11:18 154 20 gusting 47 2.2
2017-Dec-13 11:03 153 23 gusting 39 2.2
2017-Dec-13 10:48 163 21 gusting 46 2.2
2017-Dec-13 10:32 200 22 gusting 41 2.2
2017-Dec-13 10:17 138 23 gusting 50 2.2
2017-Dec-13 10:02 155 28 gusting 53 2.2
2017-Dec-13 09:48 142 25 gusting 58 2.2
2017-Dec-13 09:32 140 27 gusting 59 2.2
2017-Dec-13 09:17 147 26 gusting 62 2.2
2017-Dec-13 09:02 113 30 gusting 56 2.2
2017-Dec-13 08:48 200 36 gusting 69 2.2
2017-Dec-13 08:32 168 30 gusting 51 2.2
2017-Dec-13 08:17 143 20 gusting 55 2.2
2017-Dec-13 08:02 138 25 gusting 43 2.2
2017-Dec-13 07:47 169 25 gusting 53 1.7
2017-Dec-13 07:32 191 30 gusting 57 1.7
2017-Dec-13 07:17 129 25 gusting 40 1.7
2017-Dec-13 07:02 141 25 gusting 45 1.7
2017-Dec-13 06:47 130 24 gusting 46 1.7
2017-Dec-13 06:32 144 26 gusting 51 1.7
2017-Dec-13 06:17 159 32 gusting 55 1.7
2017-Dec-13 06:02 139 29 gusting 56 1.7
2017-Dec-13 05:47 155 28 gusting 52 1.1
2017-Dec-13 05:32 146 29 gusting 55 1.1
2017-Dec-13 05:17 146 32 gusting 47 1.1
2017-Dec-13 05:02 151 18 gusting 46 1.1
2017-Dec-13 04:47 178 26 gusting 47 1.1
2017-Dec-13 04:32 149 23 gusting 47 1.1
2017-Dec-13 04:17 138 17 gusting 39 1.1
2017-Dec-13 04:01 139 21 gusting 47 1.1
2017-Dec-13 03:47 144 22 gusting 47 1.1
2017-Dec-13 03:32 185 22 gusting 39 1.1
2017-Dec-13 03:16 157 19 gusting 40 0.6
2017-Dec-13 03:01 144 26 gusting 43 0.6
2017-Dec-13 02:46 157 25 gusting 45 0.6
2017-Dec-13 02:31 156 24 gusting 44 1.1
2017-Dec-13 02:16 145 29 gusting 45 1.1
2017-Dec-13 02:01 153 22 gusting 38 0.6
2017-Dec-13 01:46 149 19 gusting 39 0.6
2017-Dec-13 01:31 169 13 gusting 26 0.6
2017-Dec-13 01:17 224 19 gusting 42 0.6
2017-Dec-13 01:01 161 17 gusting 35 1.1
2017-Dec-13 00:46 186 8 gusting 30 1.1
2017-Dec-13 00:31 150 12 gusting 33 0.6
2017-Dec-13 00:16 148 13 gusting 31 0.6
2017-Dec-13 00:01 138 19 gusting 33 0.6
2017-Dec-12 23:46 167 15 gusting 37 1.1
2017-Dec-12 23:31 144 15 gusting 28 1.1
2017-Dec-12 23:16 146 18 gusting 29 0.6
2017-Dec-12 23:02 139 15 gusting 22 0.6
2017-Dec-12 22:46 130 14 gusting 24 0.6
2017-Dec-12 22:31 130 14 gusting 25 0.6
2017-Dec-12 22:16 154 17 gusting 24 0.6
2017-Dec-12 22:01 151 10 gusting 18 0.6
2017-Dec-12 21:46 152 10 gusting 19 0.6
2017-Dec-12 21:31 157 9 gusting 25 0.6
2017-Dec-12 21:15 161 13 gusting 23 -0.0
2017-Dec-12 21:01 134 19 gusting 34 -0.0
2017-Dec-12 20:46 154 14 gusting 30 0.6
2017-Dec-12 20:30 161 13 gusting 30 0.6
2017-Dec-12 20:15 151 13 gusting 24 0.6
2017-Dec-12 20:01 148 13 gusting 22 0.6
2017-Dec-12 19:46 149 9 gusting 21 0.6
2017-Dec-12 19:30 125 11 gusting 19 0.6
2017-Dec-12 19:15 118 9 gusting 26 0.6
2017-Dec-12 19:01 121 15 gusting 24 0.6
2017-Dec-12 18:46 137 17 gusting 28 0.6
2017-Dec-12 18:31 140 10 gusting 19 -0.0
2017-Dec-12 18:15 131 17 gusting 29 -0.0
2017-Dec-12 18:00 113 17 gusting 23 -0.0
2017-Dec-12 17:45 143 18 gusting 32 -0.0
2017-Dec-12 17:30 144 8 gusting 17 -0.0
2017-Dec-12 17:15 123 9 gusting 25 -0.0
2017-Dec-12 17:00 140 13 gusting 29 -0.0
2017-Dec-12 16:45 146 13 gusting 24 -0.0
2017-Dec-12 16:30 117 12 gusting 26 -0.0
2017-Dec-12 16:15 131 13 gusting 19 -0.0
2017-Dec-12 16:00 139 14 gusting 22 -0.0
2017-Dec-12 15:45 132 14 gusting 22 -0.0
2017-Dec-12 15:30 131 10 gusting 19 -0.0
2017-Dec-12 15:15 136 11 gusting 20 -0.0
2017-Dec-12 15:00 152 8 gusting 25 -0.0
2017-Dec-12 14:45 133 13 gusting 22 -0.0
2017-Dec-12 14:30 132 13 gusting 25 -0.0
2017-Dec-12 14:15 131 14 gusting 23 -0.0
2017-Dec-12 14:00 151 13 gusting 19 -0.0
2017-Dec-12 13:45 144 8 gusting 20 -0.6
2017-Dec-12 13:30 132 3 gusting 13 -0.0
2017-Dec-12 13:16 141 6 gusting 21 -0.0
2017-Dec-12 13:00 136 11 gusting 17 0.6
2017-Dec-12 12:45 123 12 gusting 20 -0.0
2017-Dec-12 12:30 137 13 gusting 19 -0.0
2017-Dec-12 12:15 144 8 gusting 12 -0.0
2017-Dec-12 12:00 144 -0.0
2017-Dec-12 11:45 144 0.6
2017-Dec-12 11:30 144 -0.0
2017-Dec-12 11:15 142 6 gusting 11 -0.0
2017-Dec-12 11:00 142 6 gusting 13 -0.6
2017-Dec-12 10:45 142 1 gusting 9 -0.6
2017-Dec-12 10:30 142 -0.6
2017-Dec-12 10:15 142 -0.6
2017-Dec-12 10:00 142 -0.6
2017-Dec-12 09:45 142 -0.6
2017-Dec-12 09:30 142 -0.6
2017-Dec-12 09:15 142 -0.6
2017-Dec-12 09:00 142 -1.1
2017-Dec-12 08:45 142 -1.1
2017-Dec-12 08:30 142 -1.7
2017-Dec-12 08:15 142 -1.7
2017-Dec-12 08:00 142 1 gusting 12 -1.1
2017-Dec-12 07:45 137 2 gusting 12 -1.1
2017-Dec-12 07:30 130 5 gusting 17 -1.1
2017-Dec-12 07:15 115 5 gusting 16 -1.1
2017-Dec-12 07:00 141 4 gusting 12 -1.1
2017-Dec-12 06:45 126 5 gusting 13 -1.1
2017-Dec-12 06:30 138 5 gusting 11 -1.1
2017-Dec-12 06:15 135 8 gusting 13 -1.1
2017-Dec-12 06:00 135 7 gusting 19 -1.1
2017-Dec-12 05:45 149 7 gusting 13 -1.1
2017-Dec-12 05:30 141 8 gusting 15 -1.1
2017-Dec-12 05:15 137 10 gusting 18 -0.6
2017-Dec-12 05:00 143 9 gusting 16 -0.6
2017-Dec-12 04:45 144 10 gusting 18 -0.6
2017-Dec-12 04:30 149 7 gusting 16 -0.6
2017-Dec-12 04:15 142 9 gusting 18 -0.6
2017-Dec-12 04:00 123 6 gusting 12 -0.6
2017-Dec-12 03:45 130 10 gusting 17 -0.6
2017-Dec-12 03:30 127 6 gusting 11 -0.6
2017-Dec-12 03:14 127 8 gusting 18 -0.6
2017-Dec-12 03:00 134 9 gusting 17 -0.6
2017-Dec-12 02:45 135 11 gusting 19 -0.6
2017-Dec-12 02:29 164 7 gusting 18 -0.6
2017-Dec-12 02:15 140 10 gusting 19 -0.6
2017-Dec-12 02:00 136 9 gusting 22 -0.6
2017-Dec-12 01:44 142 10 gusting 22 -0.6
2017-Dec-12 01:29 116 12 gusting 26 -1.1
2017-Dec-12 01:14 134 13 gusting 23 -1.1
2017-Dec-12 00:59 133 13 gusting 24 -1.1
2017-Dec-12 00:44 148 13 gusting 24 -0.6
2017-Dec-12 00:30 126 8 gusting 21 -0.6
2017-Dec-12 00:14 132 12 gusting 26 -0.6
2017-Dec-11 23:59 144 12 gusting 20 -0.6
2017-Dec-11 23:44 138 11 gusting 25 -0.6
2017-Dec-11 23:29 130 8 gusting 23 -0.6
2017-Dec-11 23:14 123 14 gusting 29 -0.6
2017-Dec-11 22:59 153 10 gusting 22 -0.6
2017-Dec-11 22:44 128 16 gusting 23 -0.6
2017-Dec-11 22:29 123 16 gusting 29 -0.6
2017-Dec-11 22:14 136 12 gusting 25 -0.0
2017-Dec-11 21:59 144 10 gusting 22 -0.0
2017-Dec-11 21:44 136 13 gusting 25 -0.0
2017-Dec-11 21:29 136 14 gusting 24 -0.0
2017-Dec-11 21:14 128 13 gusting 19 -0.0
2017-Dec-11 20:59 120 11 gusting 24 -0.0
2017-Dec-11 20:44 120 14 gusting 28 -0.0
2017-Dec-11 20:29 136 14 gusting 32 -0.0
2017-Dec-11 20:14 123 16 gusting 25 -0.0
2017-Dec-11 19:59 126 10 gusting 21 -0.0
2017-Dec-11 19:44 127 13 gusting 23 -0.0
2017-Dec-11 19:29 128 9 gusting 20 -0.0
2017-Dec-11 19:15 131 13 gusting 21 -0.0
2017-Dec-11 18:59 143 13 gusting 26 -0.0
2017-Dec-11 18:44 121 13 gusting 25 -0.0
2017-Dec-11 17:59 120 16 gusting 31 0.6
2017-Dec-11 17:44 122 14 gusting 26 0.6
2017-Dec-11 17:29 131 10 gusting 22 0.6
2017-Dec-11 17:14 132 13 gusting 27 0.6
2017-Dec-11 16:59 159 17 gusting 29 -0.0
2017-Dec-11 16:44 146 13 gusting 32 -0.0
2017-Dec-11 16:29 146 19 gusting 35 -0.0
2017-Dec-11 16:13 132 19 gusting 29 -0.0
2017-Dec-11 15:59 142 16 gusting 29 -0.0
2017-Dec-11 15:43 142 15 gusting 27 -0.0
2017-Dec-11 15:28 125 13 gusting 34 -0.0
2017-Dec-11 15:13 159 16 gusting 29 -0.0
2017-Dec-11 14:58 148 15 gusting 29 -0.0
2017-Dec-11 14:43 165 13 gusting 26 -0.0
2017-Dec-11 14:29 157 11 gusting 22 -0.0
2017-Dec-11 14:13 150 11 gusting 25 0.6
2017-Dec-11 13:58 168 19 gusting 35 0.6
2017-Dec-11 13:43 163 19 gusting 33 0.6
2017-Dec-11 13:28 128 14 gusting 27 0.6
2017-Dec-11 13:14 167 14 gusting 26 0.6